Showing default

BILSAT 1, 27943

Orbit data source: Space-Track

BILSAT 1, 27943 is a payload satellite owned by TUBITAK-BILTEN (TR) in SSO that was launched on Sat, 27 Sep 2003 UTC via a KOSMOS 11K65M launch vehicle from the Plesetsk Missile And Space Complex (PKMTR). Payload-class satellites include a variety of spacecraft equipped with specific instruments for various scientific and technological missions. These include communications satellites like Starlink; space stations such as the ISS; scientific satellites like the Hubble; Earth observation satellites from companies like Planet Labs, Umbra, and HawkEye 360; GPS; miniature CubeSats for education and research; and military/defense satellites.

Loading next visibility...
Identifier
27943, 2003-042E
Orbit
SSO
Country
Flag of UnknownUnknown / TURK
Related business
Manufacturer
SSTL
Mission
Civil Imaging
Bus & Motor
SSTL-100, Unknown motor
Mass
100 kg wet, 100 kg dry
Launch date (UTC)
2003-09-27 (22 years ago)
Launch vehicle
KOSMOS 11K65M
Launch site
Plesetsk Missile And Space Complex (PKMTR)
Object type
Payload
Rocket body
Debris
Shape & HBR
Box + 1 Arm, 3.3 m
Radar Cross Section
0.540 m², Medium (>0.1 m² and < 1m²)

Expand to show TLE details & history
Last TLE update: 5 hours ago

TLE from 5 hours ago
0 BILSAT 1
1 27943U 03042E   26034.44704197  .00000491  00000-0  96921-4 0  9990
2 27943  98.3813 201.5540 0011784  54.1776 306.0520 14.66941344194515
Epoch: 2026-02-03T10:43Z
TLE epoch observation values (Epoch: 2026-02-03T10:43:44.426Z)
Latitude
-0.00006°
Longitude
-93.00895°
Altitude
668.955 km
Speed
7.525 km/s
True Right ascension
13h 26m 12s
True Declination
0° 00' 00"
Sunlit
Object was in daylight at epoch
Visualization orbit readout
Latitude
Unknown
Longitude
Unknown
Altitude
Unknown
Speed
Unknown
Apparent Right ascension
Unknown
Apparent Declination
Unknown
Sunlit
N/A
Visualization observer readout
Local Sidereal Time
18:04:19
Azimuth
Unknown
Elevation
Unknown
Doppler factor
Unknown
Orbital elements
Apogee altitude
676.233 km
Perigee altitude
659.627 km
Semi-major axis
7,046.067 km
Eccentricity
0.00118
Inclination
98.3813°
RAAN
201.554°
Arg. of periapsis
54.1776°
True anomaly
305.94273°
Mean anomaly
306.052°
Eccentric anomaly
305.99738°
Mean motion
3.66964 °/min
Orbital period
98.1 mins
BSTAR
0.000096921
Loading maneuver chart data...
Computing Atmospheric mass density...
Loading historical data...
Loading historical data...
Loading historical data...
Loading historical data...
Loading historical data...
Loading historical data...
Loading historical data...

Documentation

Showing up to 5 results
|